Voltar ao catálogo

NAVSTAR 9

USA 1

AtivoNavegaçãoMEO
NORAD 15039·PAYLOAD·🇺🇸 United States

Lançado Jun 13, 1984 de Vandenberg Space Force Base

Loading…

Próximas Passagens (próximas 24 horas)

TLE

AtualizadoSource: Space-Track

Época: Sep 13, 2026, 12:27 UTC

1 15039U 84059A   26256.51907229 -.00000027  00000-0  00000+0 0  9999
2 15039  63.6489  61.7583 0244973  54.4490 120.7205  1.92302761299829

Acompanhe NAVSTAR 9 em tempo real com AllMySat

Download on the App Store